Tracking 29799 objects as of 11-Oct-2024
HD Live streaming from Space Station
objects crossing your sky now

NAVSTAR 77 (USA 289)

Track NAVSTAR 77 (USA 289) now!
NAVSTAR 77 (USA 289) is classified as:


NORAD ID: 43873
Int'l Code: 2018-109A
Perigee: 20,106.8 km
Apogee: 20,272.5 km
Inclination: 55.3 °
Period: 718.0 minutes
Semi major axis: 26560 km
RCS: Unknown
Launch date: December 23, 2018
Source: United States (US)
Launch site: AIR FORCE EASTERN TEST RANGE (AFETR)
PRN: 4
Your satellite tracking list
Your tracking list is empty




NASA's NSSDC Master Catalog

Two Line Element Set (TLE):
1 43873U 18109A   24284.26159521  .00000064  00000-0  00000-0 0  9995
2 43873  55.3431 116.4794 0031201 191.8059 165.1553  2.00560543 42737
Source of the keplerian elements: AFSPC